Home > Weather > Las Cruces > Past weeks

Flag for U.S.A. Weather for the Past 2 Weeks in Las Cruces, New Mexico, U.S.A.

Now
59 °F

Clear.


Feels Like: 59 °F
Forecast: 37 / 71 °F
Wind: 6 mph from Southwest

Location: Las Cruces International

Current Time: Feb 11, 2016 at 7:16:43 PM

Latest Report: Feb 11, 2016 at 6:15 PM


Visibility: 10 mi

Pressure: 30.25 "Hg (26.28 "Hg at 1187m altitude)

Humidity: 14%

Dew point: 10 °F

Location of Las CrucesLocation

Historic Weather in Las Cruces — Graph

°F

Las Cruces Temperature Yesterday

Maximum temperature yesterday: 69 °F (at 3:55 PM)
Minimum temperature yesterday: 29 °F (at 5:55 AM)
Average temperature yesterday: 48 °F

High & Low Weather Summary for the Past Weeks

 TemperatureHumidityPressure
High72 °F (Feb 11, 3:55 PM)98% (Feb 1, 8:35 AM)30.49 "Hg (Feb 1, 8:35 AM)
Low16 °F (Feb 3, 5:35 AM)8% (Feb 5, 4:15 PM)29.62 "Hg (Feb 1, 5:55 AM)
Average42 °F36%30.20 "Hg
* Reported Jan 27 5:15 PM — Feb 11 5:55 PM, Las Cruces, Weather by CustomWeather, © 2016

Note: Actual official high and low records may vary slightly from our data, if they occured in-between our weather recording intervals... More about our weather records

Advertising

Las Cruces Weather History for the Previous 24 Hours

 ConditionsComfort  
Time TempWeatherWind HumidityBarometerVisibility
5:55 PM
Thu, Feb 11
65 °FClear.3 mph12%30.25 "Hg10 mi
5:35 PM70 °FSunny.No wind10%30.24 "Hg10 mi
5:15 PM71 °FSunny.No wind9%30.24 "Hg10 mi
4:55 PM72 °FSunny.No wind9%30.23 "Hg10 mi
4:35 PM72 °FSunny.No wind8%30.23 "Hg10 mi
4:15 PM72 °FSunny.No wind8%30.23 "Hg10 mi
3:55 PM72 °FSunny.5 mph8%30.22 "Hg10 mi
2:55 PM71 °FSunny.No wind9%30.23 "Hg10 mi
2:15 PM71 °FSunny.5 mph10%30.23 "Hg10 mi
1:55 PM70 °FSunny.3 mph10%30.23 "Hg10 mi
1:35 PM70 °FSunny.3 mph11%30.24 "Hg10 mi
1:15 PM70 °FSunny.7 mph11%30.25 "Hg10 mi
12:55 PM69 °FSunny.10 mph12%30.25 "Hg10 mi
12:15 PM68 °FSunny.8 mph12%30.28 "Hg10 mi
11:55 AM67 °FSunny.6 mph14%30.29 "Hg10 mi
11:35 AM66 °FSunny.12 mph14%30.29 "Hg10 mi
11:15 AM64 °FSunny.8 mph15%30.30 "Hg10 mi
10:55 AM63 °FSunny.6 mph17%30.31 "Hg10 mi
10:15 AM59 °FSunny.6 mph21%30.31 "Hg10 mi
9:55 AM59 °FSunny.5 mph20%30.31 "Hg10 mi
9:35 AM59 °FSunny.10 mph19%30.30 "Hg10 mi
9:15 AM52 °FSunny.3 mph27%30.31 "Hg10 mi
8:55 AM52 °FSunny.3 mph26%30.31 "Hg10 mi
8:35 AM50 °FSunny.3 mph28%30.29 "Hg10 mi
8:15 AM49 °FSunny.No wind29%30.29 "Hg10 mi
7:55 AM49 °FSunny.5 mph29%30.29 "Hg10 mi
7:35 AM44 °FSunny.3 mph34%30.28 "Hg10 mi
7:15 AM43 °FSunny.6 mph35%30.27 "Hg10 mi
6:55 AM43 °FSunny.6 mph34%30.27 "Hg10 mi
6:35 AM42 °FClear.3 mph34%30.27 "Hg10 mi
6:15 AM43 °FClear.3 mph33%30.27 "Hg10 mi
5:55 AM39 °FClear.10 mph38%30.27 "Hg10 mi
5:35 AM40 °FClear.6 mph36%30.27 "Hg10 mi
5:15 AM42 °FClear.12 mph35%30.27 "Hg10 mi
4:55 AM36 °FClear.12 mph44%30.27 "Hg10 mi
4:35 AM34 °FClear.7 mph47%30.26 "Hg10 mi
4:15 AM33 °FClear.8 mph49%30.25 "Hg10 mi
3:55 AM33 °FClear.7 mph49%30.25 "Hg10 mi
3:35 AM35 °FClear.6 mph43%30.25 "Hg10 mi
3:15 AM39 °FClear.No wind36%30.25 "Hg10 mi
2:55 AM42 °FClear.3 mph32%30.25 "Hg10 mi
2:15 AM41 °FClear.3 mph34%30.25 "Hg10 mi
1:55 AM43 °FClear.7 mph31%30.25 "Hg10 mi
1:35 AM40 °FClear.9 mph36%30.25 "Hg10 mi
1:15 AM40 °FClear.8 mph36%30.26 "Hg10 mi
12:55 AM38 °FClear.8 mph38%30.26 "Hg10 mi
12:35 AM39 °FClear.6 mph36%30.25 "Hg10 mi
12:15 AM41 °FClear.6 mph32%30.25 "Hg10 mi
11:55 PM
Wed, Feb 10
39 °FClear.5 mph35%30.25 "Hg10 mi
11:15 PM40 °FClear.7 mph33%30.26 "Hg10 mi
10:55 PM45 °FClear.No wind27%30.27 "Hg10 mi
10:15 PM44 °FClear.6 mph29%30.26 "Hg10 mi
9:15 PM43 °FClear.6 mph30%30.27 "Hg10 mi
8:55 PM44 °FClear.5 mph28%30.27 "Hg10 mi
8:35 PM46 °FClear.7 mph27%30.27 "Hg10 mi
8:15 PM47 °FClear.8 mph26%30.27 "Hg10 mi
7:15 PM53 °FClear.7 mph20%30.27 "Hg10 mi
Weather by CustomWeather, © 2016

See weather overviewHow to use our weather pages